Hourly Data Report for September 25, 2017

All times are specified in Local Standard Time (LST). Add 1 hour to adjust for Daylight Saving Time where and when it is observed.

GJOA HAVEN A
NUNAVUT

68°38'08.000" N
95°51'01.000" W
46.90 m
2302337
71597
YHK

Related Data

No related data is available for this station

Download Data

Hourly Data (September 2017)
Hourly Data Report for September 25, 2017
Temp Definition
°C
Dew Point Temp Definition
°C
Rel Hum Definition
%
Wind Dir Definition
10's deg

Wind Spd Definition
km/h
Visibility Definition
km
Stn Press Definition
kPa
Hmdx Definition


Wind Chill Definition


Weather Definition


TIME
00:00 Legend Double Dagger -2.1 -4.6 83 26 11 16.1 101.41   -6 LegendNANA
01:00 Legend Double Dagger -2.6 -4.3 88 29 9 16.1 101.39   -6 LegendNANA
02:00 Legend Double Dagger -3.6 -4.9 91 28 11 16.1 101.36   -8 LegendNANA
03:00 Legend Double Dagger -3.6 -5.3 88 30 9 16.1 101.35   -7 LegendNANA
04:00 Legend Double Dagger -2.9 -5.2 84 29 4 16.1 101.34   -4 LegendNANA
05:00 Legend Double Dagger -2.0 -4.2 85 18 5 16.1 101.30   -4 LegendNANA
06:00 Legend Double Dagger -2.3 -4.1 88 19 11 16.1 101.26   -6 LegendNANA
07:00 Legend Double Dagger -1.6 -3.3 88 17 13 16.1 101.24   -6 LegendNANA
08:00 Legend Double Dagger -0.9 -3.0 86 18 17 16.1 101.18   -6 LegendNANA
09:00 Legend Double Dagger -0.4 -2.7 85 19 18 16.1 101.19   -5 LegendNANA
10:00 Legend Double Dagger -0.2 -1.8 89 18 22 14.5 101.15   -6 LegendNANA
11:00 Legend Double Dagger -0.1 -1.8 88 17 18 16.1 101.13   -5 LegendNANA
12:00 Legend Double Dagger 0.3 -1.7 86 16 18 16.1 101.11     LegendNANA
13:00 Legend Double Dagger 0.8 -1.0 88 16 18 16.1 101.07     LegendNANA
14:00 Legend Double Dagger 1.3 -0.5 88 17 17 16.1 101.05     LegendNANA
15:00
16:00 Legend Double Dagger 1.9 1.0 94 17 21 16.1 101.02     LegendNANA
17:00 Legend Double Dagger 1.8 1.2 96 16 17 16.1 101.01     LegendNANA
18:00 Legend Double Dagger 1.6 1.3 98 17 15 16.1 100.98     LegendNANA
19:00 Legend Double Dagger 1.7 1.2 97 17 21 16.1 100.96     LegendNANA
20:00 Legend Double Dagger 1.6 1.2 97 17 17 16.1 100.94     LegendNANA
21:00 Legend Double Dagger 2.1 1.5 96 18 22 16.1 100.89     LegendNANA
22:00 Legend Double Dagger 2.2 1.3 94 19 24 16.1 100.87     LegendNANA
23:00 Legend Double Dagger 2.3 1.4 94 18 22 16.1 100.85     LegendNANA

Notes on Data Quality.

Legend

  • E = Estimated
  • M = Missing
  • NA = Not Available
  • ‡ = Partner data that is not subject to review by the National Climate Archives
Date modified: